TimeCDT,TemperatureF,Dew PointF,Humidity,Sea Level PressureIn,VisibilityMPH,Wind Direction,Wind SpeedMPH,Gust SpeedMPH,PrecipitationIn,Events,Conditions,WindDirDegrees,DateUTC
12:45 AM,75.2,73.4,94,30.02,7.0,Calm,Calm,-,N/A,,Mostly Cloudy,0,2012-10-04 05:45:00
1:44 AM,75.2,73.4,94,30.07,3.0,SSE,8.1,20.7,N/A,Rain-Thunderstorm,Thunderstorms and Rain,160,2012-10-04 06:44:00
2:43 AM,73.4,73.4,100,30.06,3.0,SW,6.9,-,N/A,Rain-Thunderstorm,Thunderstorms and Rain,230,2012-10-04 07:43:00
3:46 AM,73.4,71.6,94,30.01,3.0,WNW,5.8,-,N/A,Rain,Rain,300,2012-10-04 08:46:00
4:45 AM,71.6,71.6,100,30.05,3.0,West,5.8,-,N/A,Rain,Rain,280,2012-10-04 09:45:00
5:44 AM,71.6,69.8,94,30.05,6.0,NNW,5.8,-,N/A,Rain,Light Rain,330,2012-10-04 10:44:00
6:43 AM,71.6,69.8,94,30.03,6.0,NW,5.8,-,N/A,,Overcast,320,2012-10-04 11:43:00
7:45 AM,71.6,69.8,94,30.07,6.0,NE,8.1,-,N/A,Rain-Thunderstorm,Light Thunderstorms and Rain,40,2012-10-04 12:45:00
8:40 AM,73.4,71.6,94,30.09,6.0,Calm,Calm,-,N/A,,Mostly Cloudy,0,2012-10-04 13:40:00
9:49 AM,77.0,73.4,89,30.13,6.0,Calm,Calm,-,N/A,,Mostly Cloudy,0,2012-10-04 14:49:00
10:40 AM,77.0,73.4,89,30.13,5.0,ESE,3.5,-,N/A,Rain,Light Rain,110,2012-10-04 15:40:00
11:41 AM,75.2,71.6,89,30.09,5.0,Calm,Calm,-,N/A,Rain,Light Rain,0,2012-10-04 16:41:00
12:41 PM,75.2,73.4,94,30.04,6.0,ENE,3.5,-,N/A,,Overcast,60,2012-10-04 17:41:00
1:41 PM,78.8,75.2,89,30.04,7.0,North,5.8,-,N/A,,Overcast,360,2012-10-04 18:41:00
2:42 PM,78.8,75.2,89,30.01,7.0,NNW,4.6,-,N/A,,Overcast,340,2012-10-04 19:42:00
3:44 PM,80.6,75.2,84,30.01,7.0,North,4.6,-,N/A,,Overcast,360,2012-10-04 20:44:00
4:43 PM,80.6,73.4,79,29.99,7.0,NNE,4.6,-,N/A,,Mostly Cloudy,20,2012-10-04 21:43:00
5:40 PM,80.6,73.4,79,29.99,7.0,NNE,3.5,-,N/A,,Mostly Cloudy,20,2012-10-04 22:40:00
6:46 PM,78.8,75.2,89,30.00,7.0,North,2.3,-,N/A,,Mostly Cloudy,10,2012-10-04 23:46:00
7:40 PM,77.0,75.2,94,30.02,7.0,NW,2.3,-,N/A,,Mostly Cloudy,310,2012-10-05 00:40:00
8:44 PM,75.2,75.2,100,30.00,7.0,West,3.5,-,N/A,,Mostly Cloudy,280,2012-10-05 01:44:00
9:47 PM,75.2,73.4,94,30.05,7.0,WNW,3.5,-,N/A,,Mostly Cloudy,300,2012-10-05 02:47:00
10:44 PM,75.2,73.4,94,30.06,6.0,ENE,3.5,-,N/A,,Mostly Cloudy,70,2012-10-05 03:44:00
11:42 PM,73.4,71.6,94,30.05,6.0,ENE,3.5,-,N/A,,Mostly Cloudy,70,2012-10-05 04:42:00